Regional Weather Roundup
Issued by NWS

Home | Current Version | Previous Version | Graphics & Text | Print | Product List | Glossary On
Versions: 1 2 3 4 5 6 7 8 9 10 11 12 13 14 15 16 17 18 19 20 21 22 23 24 25 26 27 28 29 30 31 32 33 34 35 36 37 38 39 40 41 42 43 44 45 46 47 48 49 50
000
ASUS43 KDTX 251810
RWRMI
MICHIGAN HOURLY REGIONAL WEATHER ROUNDUP
NATIONAL WEATHER SERVICE DETROIT/PONTIAC MI
200 PM EDT FRI JUL 25 2014

NOTE: "FAIR" INDICATES FEW OR NO CLOUDS BELOW 12,000 FEET WITH NO
SIGNIFICANT WEATHER AND/OR OBSTRUCTION TO VISIBILITY.

MIZ047>049-052>055-059>063-066>070-074>076-081>083-251900-
SOUTHEAST LOWER MICHIGAN

CITY           SKY/WX    TMP DP  RH WIND       PRES   REMARKS
ADRIAN         PTSUNNY   76  53  44 SW12G21   30.04F
6HR MIN TEMP:  57; 6HR MAX TEMP:  76;

ALMA           CLOUDY    74  52  45 SW6       30.01S
6HR MIN TEMP:  56; 6HR MAX TEMP:  74;

ANN ARBOR      PTSUNNY   77  51  40 SW12      30.02F
BAD AXE        MOSUNNY   74  51  43 W10G21    30.00S
6HR MIN TEMP:  56; 6HR MAX TEMP:  74;

DETROIT CITY   MOSUNNY   77  50  38 SW9G17    30.02F
6HR MIN TEMP:  65; 6HR MAX TEMP:  79;

DETROIT        PTSUNNY   77  52  41 SW10G18   30.04F
6HR MIN TEMP:  59; 6HR MAX TEMP:  78;

FLINT          PTSUNNY   76  52  43 W13G20    30.01S
6HR MIN TEMP:  60; 6HR MAX TEMP:  76;

GROSSE ILE     MOSUNNY   73  55  53 S17       30.02F
HILLSDALE      PTSUNNY   74  53  47 W6        30.03F
6HR MIN TEMP:  60; 6HR MAX TEMP:  75;

HOWELL         MOSUNNY   75  48  38 S9G16     30.01F
6HR MIN TEMP:  57; 6HR MAX TEMP:  75;


CITY           SKY/WX    TMP DP  RH WIND       PRES   REMARKS
JACKSON        PTSUNNY   75  53  46 SW8       30.02F
6HR MIN TEMP:  58; 6HR MAX TEMP:  75;

LAMBERTVILLE   PTSUNNY   75  52  43 SW6       30.04F
LANSING        PTSUNNY   75  51  43 MISG      30.02F
6HR MIN TEMP:  58; 6HR MAX TEMP:  75;

LAPEER         NOT AVBL
MASON          MOSUNNY   73  53  48 SW3       30.02F
MONROE         MOSUNNY   75  52  43 SW9       30.03S
MT. CLEMENS    PTSUNNY   76  52  43 SW8       30.00F
6HR MIN TEMP:  64; 6HR MAX TEMP:  77;

PONTIAC        PTSUNNY   75  50  41 SW13G20   30.02F
6HR MIN TEMP:  59; 6HR MAX TEMP:  76;

PORT HOPE        N/A     76  55  48 CALM      29.97F
6HR MIN TEMP:  59; 6HR MAX TEMP:  76;

PORT HURON     MOSUNNY   73  54  49 SW13G21   30.01F
TRI CITIES     PTSUNNY   74  53  48 W6        30.00F
6HR MIN TEMP:  59; 6HR MAX TEMP:  76;

YPSILANTI      PTSUNNY   80  52  37 SW14      30.03F
6HR MIN TEMP:  64; 6HR MAX TEMP:  80;

$$
MIZ043>046-050>051-056>058-064>065-071>073-077>080-251900-
SOUTHWEST LOWER MICHIGAN

CITY           SKY/WX    TMP DP  RH WIND       PRES   REMARKS
BATTLE CREEK     N/A     73  51  46 CALM      30.02F
6HR MIN TEMP:  59; 6HR MAX TEMP:  75;

BENTON HARBOR  MOSUNNY   73  53  49 S9        29.99F
6HR MIN TEMP:  54; 6HR MAX TEMP:  75;

BIG RAPIDS     CLOUDY    73  56  55 S5        29.97F
6HR MIN TEMP:  51; 6HR MAX TEMP:  73;

COLDWATER      MOSUNNY   75  55  49 SW9       30.02F
6HR MIN TEMP:  59; 6HR MAX TEMP:  76;

HOLLAND        MOSUNNY   76  54  46 SW8       30.00F
6HR MIN TEMP:  57; 6HR MAX TEMP:  77;

GRAND RAPIDS   PTSUNNY   77  55  46 SW7       29.99F
6HR MIN TEMP:  56; 6HR MAX TEMP:  77;

KALAMAZOO      MOSUNNY   75  54  47 S9        30.02F
6HR MIN TEMP:  59; 6HR MAX TEMP:  75;

MARSHALL       PTSUNNY   73  54  51 SW9       30.02F
MUSKEGON       CLOUDY    69  56  62 S10       29.98F
6HR MIN TEMP:  59; 6HR MAX TEMP:  72;

$$
MIZ016>042-251900-
NORTHERN LOWER MICHIGAN

CITY           SKY/WX    TMP DP  RH WIND       PRES   REMARKS
ALPENA         PTSUNNY   77  53  43 S9        29.93F
6HR MIN TEMP:  55; 6HR MAX TEMP:  78;

BEAVER ISLAND  MOSUNNY   69  57  65 SW14      29.93R
6HR MIN TEMP:  62; 6HR MAX TEMP:  71;

BELLAIRE       PTSUNNY   76  55  48 SW6       29.93F
6HR MIN TEMP:  54; 6HR MAX TEMP:  76;

CADILLAC       PTSUNNY   72  58  62 SW10      29.97F
CHARLEVOIX     PTSUNNY   76  57  52 SW10      29.95F
6HR MIN TEMP:  55; 6HR MAX TEMP:  76;

FRANKFORT      CLOUDY    69  53  57 SW9       29.96R
GAYLORD        PTSUNNY   72  56  57 W9        29.95F
6HR MIN TEMP:  53; 6HR MAX TEMP:  73;

GRAYLING       PTSUNNY   74  55  50 SW7       29.96F
6HR MIN TEMP:  52; 6HR MAX TEMP:  75;

HARBOR SPRINGS MOSUNNY   74  57  55 W5        29.92F
HOUGHTON LAKE  MOSUNNY   74  56  53 S9        29.97F
6HR MIN TEMP:  58; 6HR MAX TEMP:  74;

MANISTEE       CLOUDY    70  55  60 SW5       29.98R
OSCODA         PTSUNNY   78  51  38 S8G18     29.95S
PELLSTON       MOSUNNY   75  58  55 SW8       29.92F
6HR MIN TEMP:  53; 6HR MAX TEMP:  75;

TRAVERSE CITY  CLOUDY    77  56  48 VRB6      29.92F
6HR MIN TEMP:  60; 6HR MAX TEMP:  77;

$$
MIZ007>008-015-251900-
EASTERN UPPER MICHIGAN

CITY           SKY/WX    TMP DP  RH WIND       PRES   REMARKS
KINROSS        SUNNY     75  55  50 S9        29.89F
6HR MIN TEMP:  59; 6HR MAX TEMP:  77;

MACKINAC ISLAN SUNNY     69  56  64 W15       29.91F
6HR MIN TEMP:  59; 6HR MAX TEMP:  70;

NEWBERRY       PTSUNNY   72  57  58 S10       29.89S
S. S. MARIE    MOSUNNY   76  53  44 W7        29.87F
6HR MIN TEMP:  56; 6HR MAX TEMP:  79;

$$
MIZ004>006-011>014-085-251900-
CENTRAL UPPER MICHIGAN

CITY           SKY/WX    TMP DP  RH WIND       PRES   REMARKS
MANISTIQUE     PTSUNNY   67  58  72 S14       29.89F
6HR MIN TEMP:  59; 6HR MAX TEMP:  67;

ESCANABA       CLOUDY    68  57  68 S16       29.88F
6HR MIN TEMP:  59; 6HR MAX TEMP:  72;

MENOMINEE      CLOUDY    72  57  60 SW9G16    29.89F
6HR MIN TEMP:  61; 6HR MAX TEMP:  72;

SAWYER-GWINN   CLOUDY    77  59  53 SW13G21   29.87F
$$
MIZ001>003-009>011-084-251900-
WESTERN UPPER MICHIGAN

CITY           SKY/WX    TMP DP  RH WIND       PRES   REMARKS
IRON MOUNTAIN  CLOUDY    72  57  59 SW13      29.88S
6HR MIN TEMP:  61; 6HR MAX TEMP:  74; 6HR PCP: TRACE;

HOUGHTON       PTSUNNY   76  60  57 SW9       29.82F
6HR MIN TEMP:  60; 6HR MAX TEMP:  77;

COPPER HARBOR    N/A     68  58  70 E3        29.81F
6HR MIN TEMP:  64; 6HR MAX TEMP:  75;

$$

ABBREVIATIONS USED IN REMARKS
   TC - TEMPERATURE IN CELSIUS
  WCI - WIND CHILL INDEX
   HX - HEAT INDEX
  VSB - VISIBILITY



USA.gov is the U.S. government's official web portal to all federal, state and local government web resources and services.